EDT,Max TemperatureF,Mean TemperatureF,Min TemperatureF,Max Dew PointF,MeanDew PointF,Min DewpointF,Max Humidity, Mean Humidity, Min Humidity, Max Sea Level PressureIn, Mean Sea Level PressureIn, Min Sea Level PressureIn, Max VisibilityMiles, Mean VisibilityMiles, Min VisibilityMiles, Max Wind SpeedMPH, Mean Wind SpeedMPH, Max Gust SpeedMPH,PrecipitationIn, CloudCover, Events, WindDirDegrees
2012-10-1,64,58,53,61,55,48,100,85,77,29.91,29.82,29.75,10,10,6,14,6,,0.00,5,Rain,75
2012-10-2,82,70,59,66,61,57,100,78,42,29.99,29.83,29.75,10,10,5,12,6,,0.00,3,Rain,115
2012-10-3,73,65,57,63,60,57,100,88,69,30.22,30.12,30.00,10,10,0,6,1,,0.00,3,,248
2012-10-4,73,62,51,61,56,52,100,82,47,30.32,30.27,30.23,10,10,7,10,1,,0.00,4,,259
2012-10-5,75,62,50,59,53,48,100,80,44,30.28,30.17,30.06,10,10,7,8,2,,0.00,0,,42
2012-10-6,62,56,51,57,53,48,100,93,77,30.09,30.04,30.01,10,9,2,7,2,,0.00,7,Rain,237
2012-10-7,51,45,39,48,45,39,100,95,82,30.18,30.10,30.00,10,8,1,12,2,,0.00,6,Rain,248
2012-10-8,48,44,39,46,43,37,100,92,82,30.21,30.16,30.13,10,10,3,6,1,,0.00,7,Rain,81
2012-10-9,57,48,39,46,44,39,100,86,63,30.18,30.12,30.07,10,10,6,7,1,,0.00,6,,305
2012-10-10,55,47,39,48,46,39,100,88,77,30.21,30.12,30.07,10,10,6,10,2,,0.00,6,Rain,256
2012-10-11,64,48,32,46,38,32,100,77,34,30.30,30.26,30.22,10,8,0,7,1,,0.00,2,Fog,294
2012-10-12,62,52,41,52,45,39,100,79,48,30.35,30.29,30.24,10,10,10,9,1,,0.00,6,,277
2012-10-13,69,55,41,50,43,39,93,68,43,30.40,30.33,30.25,10,8,1,8,5,,0.00,0,,87
2012-10-14,73,60,46,55,50,45,93,74,50,30.26,30.14,29.99,10,8,2,13,5,,0.00,1,,78
2012-10-15,64,54,44,57,50,39,100,77,42,29.97,29.92,29.88,10,9,2,15,5,,0.00,5,Rain,270
2012-10-16,62,50,37,46,40,37,100,78,39,30.05,29.98,29.92,10,10,4,9,1,,0.00,0,Rain,265
2012-10-17,73,56,39,45,41,37,93,65,31,30.00,29.92,29.83,10,10,10,8,3,,0.00,0,,66
2012-10-18,75,60,46,57,49,41,100,74,44,29.85,29.79,29.71,10,10,4,13,6,21,0.00,2,Rain,87
2012-10-19,66,52,39,50,37,27,100,62,26,29.83,29.77,29.69,10,10,8,15,3,,0.00,2,,255
2012-10-20,55,50,44,45,40,37,93,66,54,30.02,29.90,29.79,10,10,10,13,4,,0.00,7,,272
2012-10-21,62,50,37,46,42,37,100,77,45,30.20,30.15,30.03,10,10,10,12,1,,0.00,2,Rain,235
2012-10-22,75,58,42,52,45,39,93,71,34,30.28,30.21,30.16,10,10,6,8,2,,0.00,0,,13
2012-10-23,73,58,44,55,49,43,100,74,47,30.23,30.18,30.14,10,10,10,12,2,,0.00,0,,335
2012-10-24,77,60,44,54,49,45,100,75,38,30.26,30.18,30.11,10,10,4,9,2,,0.00,0,,213
2012-10-25,80,61,42,52,47,43,100,67,28,30.18,30.12,30.06,10,10,9,10,2,,0.00,0,,77
2012-10-26,78,64,50,55,51,46,94,70,34,30.13,30.06,29.98,10,10,10,7,2,,0.00,2,,68
2012-10-27,64,56,48,54,49,43,100,82,68,29.98,29.92,29.87,10,10,9,12,3,,0.00,4,,296
2012-10-28,48,42,37,45,41,36,93,88,81,29.93,29.87,29.82,10,9,2,12,3,,0.00,8,Rain,285
2012-10-29,37,35,33,36,34,30,100,94,81,29.89,29.79,29.63,10,7,4,12,7,,0.00,8,Rain,245
2012-10-30,37,34,32,34,32,30,93,89,81,29.71,29.58,29.52,10,9,5,14,10,21,0.00,8,Rain-Snow,251
2012-10-31,42,38,35,36,33,30,93,80,61,29.83,29.76,29.70,10,10,10,15,7,22,0.00,8,,253